TITAN 3C TRANSTAGE DEB, 28805

Orbit data source: Space-Track

TITAN 3C TRANSTAGE DEB, 28805 is space debris in HEO originally from a launch on Tue, 21 Dec 1965 UTC launched from the Air Force Eastern Test Range (AFETR). Debris objects in space refer to the collection of defunct objects orbiting the Earth. Examples of debris include non-operational satellites, rocket bodies, and fragments generated from explosions, collisions, or faulty payload assembly.

Loading next visibility...
Identifier
28805, 1965-108BX
Orbit
HEO
Country
Flag of USUS
Related business
Manufacturer
Unknown
Mission
Spacecraft
Bus & Motor
Unknown
Mass
Unknown
Launch date (UTC)
1965-12-21 (61 years ago)
Launch vehicle
Unknown
Launch site
Air Force Eastern Test Range (AFETR)
Object type
Payload
Rocket body
Debris
Shape & HBR
Unknown shape, 1.1 m
Radar Cross Section
Medium (>0.1 m² and <1 m²)

Expand to show TLE details & history
Last TLE update: 1 week ago

TLE from 1 week ago
0 TITAN 3C TRANSTAGE DEB
1 28805U 65108BX  26200.34593431  .00000140  00000-0  10631-2 0  9993
2 28805  26.3448 269.5858 6792908 211.9598  53.3177  2.75948474  3471
Epoch: 2026-07-19T08:18Z
TLE epoch observation values (Epoch: 2026-07-19T08:18:08.724Z)
Latitude
-6.01982°
Longitude
-164.33194°
Altitude
15,666.931 km
Speed
4.195 km/s
True Right ascension
17h 09m 24s
True Declination
-6° 00' 30"
Sunlit
Object was in daylight at epoch
Visualization orbit readout
Latitude
Unknown
Longitude
Unknown
Altitude
Unknown
Speed
Unknown
Apparent Right ascension
Unknown
Apparent Declination
Unknown
Sunlit
N/A
Visualization observer readout
Local Sidereal Time
15:22:04
Azimuth
Unknown
Elevation
Unknown
Doppler factor
Unknown
Orbital elements
Apogee altitude
29,683.878 km
Perigee altitude
508.949 km
Semi-major axis
21,474.55 km
Eccentricity
0.67929
Inclination
26.3448°
RAAN
269.5858°
Arg. of periapsis
211.9598°
True anomaly
134.38869°
Mean anomaly
53.3177°
Eccentric anomaly
92.20927°
Mean motion
0.68969 °/min
Orbital period
521.97 mins
BSTAR
0.0010631
Loading maneuver chart data...
Computing Atmospheric mass density...

Documentation

Showing up to 5 results
|